{"data":{"norad_id":60013,"epoch":"2026-09-22T22:14:17.515104Z","epoch_age_seconds":68774,"freshness":"FRESH","line1":"1 60013U 24110B   26265.92659161  .00005354  00000+0  22640-3 0  9991","line2":"2 60013  97.5730   2.6999 0009207 267.3637  92.6546 15.23620539127064","mean_motion":15.23620539,"eccentricity":0.0009207,"inclination_deg":97.573,"raan_deg":2.6999,"arg_perigee_deg":267.3637,"mean_anomaly_deg":92.6546,"bstar":0.0002264,"rev_number":12706,"period_min":94.511721464789,"perigee_km":488.60278118721,"apogee_km":501.25884826124,"semimajor_km":6873.0678147242,"source":"CELESTRAK","updated_at":"2026-09-23T09:00:20.362606Z"}}